Location: Observatoire de Paris
(48.8363°N, 2.3365°E)
Time: 19:25:44
(UTC+01:00)

METEOR M2 - Pass Details

Date: 26 September 2021
Orbit: 820 x 826 km, 98.5° (Epoch: 28 October)

Event Time Altitude Azimuth Distance (km) Brightness Sun altitude
Rises 19:51:51 0° 180° (S) 3,338 ? -12.6°
Reaches altitude 10° 19:54:16 10° 186° (S) 2,410 ? -13.0°
Maximum altitude 19:59:26 49° 261° (W) 1,048 ? -13.8°
Drops below altitude 10° 20:04:39 10° 336° (NNW) 2,430 ? -14.7°
Sets 20:07:05 0° 342° (NNW) 3,368 ? -15.1°
